Regional Weather Roundup
Issued by NWS

Home | Current Version | Previous Version | Graphics & Text | Print | Product List | Glossary On
Versions: 1 2 3 4 5 6 7 8 9 10 11 12 13 14 15 16 17 18 19 20 21 22 23 24 25 26 27 28 29 30 31 32 33 34 35 36 37 38 39 40 41 42 43 44 45 46 47 48 49 50
000
ASUS43 KMKX 311300
RWRWI

WISCONSIN REGIONAL WEATHER ROUNDUP
NATIONAL WEATHER SERVICE MILWAUKEE/SULLIVAN WI
800 AM CDT TUE MAY 31 2016

NOTE: "FAIR" INDICATES FEW OR NO CLOUDS BELOW 12,000 FEET WITH NO
SIGNIFICANT WEATHER AND/OR OBSTRUCTIONS TO VISIBILITY.

WIZ001-002-006>008-014>016-023>028-311400-
NORTHWEST WISCONSIN

CITY           SKY/WX    TMP DP  RH WIND       PRES   REMARKS
SUPERIOR ARPT  CLOUDY    43  40  89 NE16G29   30.00R
ASHLAND        CLOUDY    50  45  83 NE10      29.98S
HAYWARD        CLOUDY    59  51  75 VRB7      29.93S
SIREN          CLOUDY    56  52  84 E3        29.91R
CUMBERLAND     CLOUDY    61  55  82 SE8       29.91S
RICE LAKE      CLOUDY    64  57  77 SE8       29.94R
CHETEK         CLOUDY    64  58  82 SE7       29.92S
LADYSMITH      CLOUDY    62  56  79 E9        29.96S
EAU CLAIRE     NOT AVBL
MENOMONIE      CLOUDY    65  59  79 CALM      29.92R
NEW RICHMOND   CLOUDY    67  55  66 S9        29.90R
OSCEOLA        CLOUDY    66  56  70 SE8       29.91S
$$

WIZ003>005-009-010-017-018-311400-
NORTH CENTRAL WISCONSIN

CITY           SKY/WX    TMP DP  RH WIND       PRES   REMARKS
MANITOWISH WTR NOT AVBL
ARBOR VITAE    CLOUDY    55  48  79 SE9       30.02R
WOODRUFF       CLOUDY    55  48  79 SE9       30.02R
RHINELANDER    MOSUNNY   55  48  77 E10       30.04S
EAGLE RIVER      N/A     51  43  74 E8        30.03F
LAND O LAKES   PTSUNNY   51  44  77 E7        30.05F
PHILLIPS       CLOUDY    57  51  80 E7        29.98S
TOMAHAWK       CLOUDY    55  49  78 E5        30.03R
MEDFORD        CLOUDY    58  53  85 E7        29.98S
MERRILL        MOSUNNY   56  50  81 SE12G20   30.02S
$$

WIZ029-030-035-036-043>047-311400-
CENTRAL WISCONSIN

CITY           SKY/WX    TMP DP  RH WIND       PRES   REMARKS
WAUSAU         MOSUNNY   58  50  75 E15       30.00S
MOSINEE        SUNNY     57  52  82 E15       30.02S
MARSHFIELD     PTSUNNY   62  54  74 E13       29.97F
STEVENS POINT  SUNNY     57  51  81 E16       30.02F
WAUPACA        MOSUNNY   60  56  87 NE7       30.04R
WAUTOMA        MOSUNNY  N/A N/A N/A E10       30.00F
WISC RAPIDS    CLOUDY    64  55  72 E15       29.99F
CAMP DOUGLAS   NOT AVBL
$$

WIZ011>013-019>022-031-037>040-048>050-311400-
NORTHEAST WISCONSIN

CITY           SKY/WX    TMP DP  RH WIND       PRES   REMARKS
ANTIGO         CLOUDY    50  46  85 E9        30.06S
SHAWANO        MOSUNNY   55  48  78 E13G20    30.07S
OCONTO         CLOUDY    53  51  92 E10       30.07F
STURGEON BAY   NOT AVBL
GREEN BAY      CLOUDY    57  48  72 NE14      30.07F
MANITOWOC      NOT AVBL
APPLETON       PTSUNNY   57  46  67 E17G24    30.03S
CLINTONVILLE   CLOUDY    55  48  76 E9        30.06S
OSHKOSH        CLOUDY    62  55  77 NE10      30.03S
$$

WIZ032>034-041-042-053>061-311400-
SOUTHWEST WISCONSIN

CITY           SKY/WX    TMP DP  RH WIND       PRES   REMARKS
LA CROSSE      CLOUDY    68  59  73 S6        29.93R
SPARTA         PTSUNNY   67  60  78 CALM      29.94S
VIROQUA        CLOUDY    64  59  85 SE13      29.94F
BOSCOBEL       NOT AVBL
PRAIRIE DU CHI SUNNY     65  60  82 CALM      29.93S
PLATTEVILLE    MOSUNNY   66  61  84 E13       29.96S
$$

WIZ056-057-062-063-064-067-068-311400-
SOUTH CENTRAL WISCONSIN

CITY           SKY/WX    TMP DP  RH WIND       PRES   REMARKS
REEDSBURG      SUNNY     69  58  69 E3        29.96F
BARABOO/DELLS  SUNNY     70  54  56 E7        29.97F
LONE ROCK      NOT AVBL
MINERAL POINT  SUNNY     68  59  73 SE10      29.97S
MADISON        PTSUNNY   70  55  59 SE10      29.98S
MIDDLETON      MOSUNNY   70  57  64 SE8       29.99S
WATERTOWN      SUNNY     67  59  74 SE7       30.00F
MONROE         CLOUDY    66  55  68 E8        29.98F
JANESVILLE     PTSUNNY   72  54  53 E8        29.99F
$$

WIZ051-052-058>065-066-070>072-311400-
SOUTHEAST WISCONSIN

CITY           SKY/WX    TMP DP  RH WIND       PRES   REMARKS
MILWAUKEE      MOSUNNY   70  55  59 NE9       30.03S
WAUKESHA       SUNNY     66  55  68 E7        30.03S
MILWAUKEE/TIMM SUNNY     66  52  59 NE8       30.05R
RACINE         MOSUNNY   70  53  54 E8        30.04F
BURLINGTON     SUNNY     68  55  62 E3        30.02S
KENOSHA        SUNNY     69  55  60 E9        30.03R
FOND DU LAC    CLOUDY    65  59  81 E6        30.02F
SHEBOYGAN      CLOUDY    54  49  83 NE17      30.05S
WEST BEND      MOSUNNY   64  57  77 E7        30.03R
JUNEAU         SUNNY     66  59  78 E5        30.02S
$$

LSZ147-162-311400-
LAKE SUPERIOR

STATION/POSITION TIME  TEMP    WIND        PRES    WAVE
                       AIR SEA DIR/SP/G            HT/PER
                 (UTC) (F)     (DEG/KT/KT) (MB)    (FT/S)
W MID LAKE BUOY  1150   42 38   90/ 17/ 19 1019.0R   3/ 4
DEVILS ISLAND    1200   43      70/ 25/ 28 1017.4F
SAXON HARBOR     1200   55      50/  8/  9 1014.9F
$$

LMZ867-665-643>646-311400-
LAKE MICHIGAN

STATION/POSITION TIME  TEMP    WIND        PRES    WAVE
                       AIR SEA DIR/SP/G            HT/PER
                 (UTC) (F)     (DEG/KT/KT) (MB)    (FT/S)
CHAMBERS ISLAND  1200   53      10/ 12/ 14 1019.6R
N MID LAKE BUOY  1150   48 47   40/ 10/ 12 1019.4R   1/ 3
NORTHPORT PIER   1200   51      40/  6/  8 1019.6R
SISTER BAY       1205   52     360/  7/ 11   N/A
ALGOMA LAKESHORE 1202          360/  9/ 11   N/A
KEWAUNEE LAKESHO 1200   51      30/  9/ 13 1018.1R
SHEBOYGAN LAKESH 1200   50     360/ 16/ 17 1018.0S
PORT WASHINGTON  1200   52      30/ 10/ 15 1017.9
S MID LAKE BUOY  1150   59 55  180/  2/  2 1016.5R   0
KENOSHA   LAKESH 1200   58      40/  4/  4 1016.6R
$$

TC  - TEMPERATURE IN CELSIUS
VSB - VISIBILITY IN STATUTE MILES
WCI - WIND CHILL INDEX
HX  - HEAT INDEX





USA.gov is the U.S. government's official web portal to all federal, state and local government web resources and services.